FW0832 Weather Reports


time (UTC)temp
F
wind
direction
speed
knots
gust
knots
rain 1hr
in
rain 24hr
in
rain mn
in
humidity
%
barometer
mb
20260507001531 51 326 2.6 7.8 0.00 0.00 0.00 46 1016.4
20260507000026 50 344 4.3 10.4 0.00 0.00 0.00 46 1016.6
20260506234531 50 336 3.5 10.4 0.00 0.00 0.00 47 1016.7
20260506233027 50 269 8.7 13.0 0.00 0.00 0.00 46 1016.8
20260506231528 50 294 7.0 11.3 0.00 0.00 0.00 44 1016.8
20260506230026 50 325 6.1 12.2 0.00 0.00 0.00 47 1016.9
20260506224520 50 305 4.3 11.3 0.00 0.00 0.00 46 1016.9
20260506223019 50 280 4.3 9.6 0.00 0.00 0.00 47 1017.0
20260506221518 49 275 4.3 10.4 0.00 0.00 0.00 49 1017.2
20260506220023 49 318 6.1 10.4 0.00 0.00 0.00 48 1017.3
20260506214515 49 303 6.1 13.0 0.00 0.00 0.00 48 1017.5
20260506213013 49 246 6.1 13.0 0.00 0.00 0.00 46 1017.6
20260506211519 49 341 5.2 13.9 0.00 0.00 0.00 45 1017.8
20260506210021 49 283 3.5 9.6 0.00 0.00 0.00 48 1018.0
20260506204509 49 328 7.0 16.5 0.00 0.00 0.00 51 1018.2
20260506203007 48 298 8.7 16.5 0.00 0.00 0.00 50 1018.3
20260506201505 48 262 7.8 13.9 0.00 0.00 0.00 49 1018.5
20260506194503 47 325 7.8 18.2 0.00 0.00 0.00 52 1018.8
20260506193002 47 263 9.6 14.8 0.00 0.00 0.00 50 1018.8
20260506191600 47 313 7.8 15.6 0.00 0.00 0.00 49 1019.0
20260506190100 47 269 7.8 13.9 0.00 0.00 0.00 53 1019.1
20260506184610 46 337 5.2 12.2 0.00 0.00 0.00 50 1019.3
20260506183055 46 339 7.0 13.0 0.00 0.00 0.00 53 1019.4
20260506181554 45 313 7.8 14.8 0.00 0.00 0.00 54 1019.6
20260506180054 45 319 7.0 15.6 0.00 0.00 0.00 54 1019.4
20260506174552 45 338 7.0 14.8 0.00 0.00 0.00 53 1019.6
20260506173103 44 307 6.1 12.2 0.00 0.00 0.00 52 1019.8
20260506171552 44 355 5.2 11.3 0.00 0.00 0.00 55 1019.9
20260506170049 43 319 7.0 13.9 0.00 0.00 0.00 55 1020.1
20260506164554 43 272 4.3 11.3 0.00 0.00 0.00 55 1020.2
20260506163046 44 303 3.5 14.8 0.00 0.00 0.00 54 1020.3
20260506161542 43 329 6.1 13.0 0.00 0.00 0.00 58 1020.1
20260506160046 42 277 4.3 13.0 0.00 0.00 0.00 59 1020.3
20260506154542 41 323 6.1 13.0 0.00 0.00 0.00 59 1020.3
20260506153035 41 263 9.6 13.0 0.00 0.00 0.00 59 1020.4
20260506151534 40 325 6.1 11.3 0.00 0.00 0.00 59 1020.4
20260506150029 40 308 3.5 11.3 0.00 0.00 0.00 61 1020.5
20260506144531 39 328 4.3 10.4 0.00 0.00 0.00 62 1020.6
20260506143033 39 301 3.5 10.4 0.00 0.00 0.00 61 1020.6
20260506141526 38 338 5.2 9.6 0.00 0.00 0.00 63 1020.5
20260506140026 38 292 4.3 10.4 0.00 0.00 0.00 63 1020.5
20260506134523 38 345 4.3 12.2 0.00 0.00 0.00 63 1020.3
20260506133024 37 350 4.3 9.6 0.00 0.00 0.00 63 1020.1
20260506131525 37 343 5.2 11.3 0.00 0.00 0.00 65 1020.1
20260506130021 37 333 6.1 11.3 0.00 0.00 0.00 65 1020.1
20260506124516 37 306 7.0 11.3 0.00 0.00 0.00 67 1020.0
20260506123017 37 342 7.0 12.2 0.00 0.00 0.00 67 1019.9
20260506121515 37 334 4.3 12.2 0.00 0.00 0.00 66 1019.7
20260506120009 37 334 6.1 10.4 0.00 0.00 0.00 67 1019.5
20260506114509 37 325 3.5 8.7 0.00 0.00 0.00 69 1019.3
20260506113008 37 323 5.2 9.6 0.00 0.00 0.00 67 1019.1
20260506111502 37 297 4.3 8.7 0.00 0.00 0.00 69 1018.9
20260506104559 37 317 3.5 11.3 0.00 0.00 0.00 67 1018.6
20260506103056 37 346 3.5 7.8 0.00 0.00 0.00 66 1018.6
20260506101555 37 318 3.5 8.7 0.00 0.00 0.00 66 1018.5
20260506100054 37 275 2.6 7.8 0.00 0.00 0.00 66 1018.4
20260506094551 37 20 2.6 7.0 0.00 0.00 0.00 68 1018.4
20260506093053 37 329 5.2 8.7 0.00 0.00 0.00 68 1018.3
20260506091548 37 329 1.7 5.2 0.00 0.00 0.00 70 1018.4
20260506090048 37 290 2.6 8.7 0.00 0.00 0.00 70 1018.4
20260506084547 37 326 3.5 9.6 0.00 0.00 0.00 70 1018.3
20260506083045 37 355 3.5 7.8 0.00 0.00 0.00 69 1018.1
20260506081543 38 343 3.5 7.8 0.00 0.00 0.00 68 1017.9
20260506073038 38 336 3.5 9.6 0.00 0.00 0.00 66 1018.2
20260506071547 38 333 1.7 5.2 0.00 0.00 0.00 66 1018.2
20260506061535 38 5 3.5 8.7 0.00 0.00 0.00 65 1018.4
20260506044522 40 21 1.7 7.0 0.00 0.00 0.00 60 1017.6
20260506043018 40 35 3.5 7.8 0.00 0.00 0.00 59 1017.4
20260506041515 41 5 4.3 7.8 0.00 0.00 0.00 60 1017.4
20260506040016 41 360 4.3 11.3 0.00 0.00 0.00 61 1017.6
20260506034515 41 339 4.3 8.7 0.00 0.00 0.00 61 1017.5
20260506033013 41 321 3.5 7.8 0.00 0.00 0.00 62 1017.3
20260506031516 41 327 3.5 9.6 0.00 0.00 0.00 62 1017.1
20260506030010 41 306 3.5 8.7 0.00 0.00 0.00 61 1016.9
20260506024509 41 327 3.5 10.4 0.00 0.00 0.00 59 1016.8
20260506023006 41 307 4.3 11.3 0.00 0.00 0.00 58 1016.5
20260506021504 41 339 3.5 9.6 0.00 0.00 0.00 59 1016.2
20260506020002 42 321 2.6 9.6 0.00 0.00 0.00 58 1016.0
20260506014604 42 5 5.2 11.3 0.00 0.00 0.00 57 1015.8
20260506013101 42 329 3.5 11.3 0.00 0.00 0.00 56 1015.7
20260506011600 43 321 3.5 9.6 0.00 0.00 0.00 56 1015.6
20260506010100 43 355 3.5 12.2 0.00 0.00 0.00 55 1015.6
20260506004627 43 333 5.2 12.2 0.00 0.00 0.00 54 1015.5
20260506003057 44 13 3.5 13.0 0.00 0.00 0.00 55 1015.6
20260506001559 44 351 4.3 11.3 0.00 0.00 0.00 54 1015.5